Location: Ettringen
(48.1054°N, 10.6545°E)
Time: 02:22:32
(UTC+00:00)

ATLAS 2AS CENTAUR R/B - Pass Details

Date: 18 November 2025
Orbit: 1047 x 1164 km, 63.7° (Epoch: 04 December)

Event Time Altitude Azimuth Distance (km) Brightness Sun altitude
Rises 17:31:13 0° 317° (NW) 3,857 6.1 -19.0°
Reaches altitude 10° 17:34:04 10° 325° (NW) 2,888 5.3 -19.5°
Maximum altitude 17:40:28 42° 35° (NE) 1,468 3.1 -20.5°
Enters shadow 17:42:14 35° 70° (ENE) 1,619 3.1 -20.8°
